Gwinn, MI

1:10 AM EDT on April 27, 2018 (GMT -0400)
Sawyer International

Weather History for KSAW - September, 2013

Change the Weather History Date:

Tuesday, September 24, 2013

  Actual Average (KESC) Record (KESC)
Temperature  
Mean Temperature 53 °F -  
Max Temperature 66 °F 61 °F 81 °F (2017)
Min Temperature 40 °F 43 °F 31 °F (1989)
Degree Days  
Heating Degree Days 12    
Growing Degree Days 3 (Base 50)    
Moisture  
Dew Point 45 °F    
Average Humidity 89    
Maximum Humidity 100    
Minimum Humidity 56    
Precipitation  
Precipitation 0.00 in - - ()
Sea Level Pressure  
Sea Level Pressure 30.07 in    
Wind  
Wind Speed 6 mph (SSW)    
Max Wind Speed 12 mph    
Max Gust Speed 17 mph    
Visibility 9 miles    
Events      
Averages and records for this station are not official NWS values.
T = Trace of Precipitation, MM = Missing Value Source: NWS Daily Summary

Daily Weather History Graph

Daily Weather History Graph

Search for Another Location

Airport or City:

Astronomy

Sep. 24, 2013 Rise Set
Actual Time 7:39 AM EDT 7:42 PM EDT
Civil Twilight 7:09 AM EDT 8:12 PM EDT
Nautical Twilight 6:34 AM EDT 8:47 PM EDT
Astronomical Twilight 5:58 AM EDT 9:23 PM EDT
Moon 10:42 PM EDT (9/24) 1:11 PM EDT (9/24)
Length of Visible Light 13h 03m
Length of Day
12h 03m
Waning Gibbous, 73% of the Moon is Illuminated
Sep 24
Waning Gibbous
Sep 26
Last Quarter
Oct 4
New
Oct 11
First Quarter
Oct 18
Full

Hourly Weather History & Observations

Time (EDT) Temp. Windchill Dew Point Humidity Pressure Visibility Wind Dir Wind Speed Gust Speed Precip Events Conditions
12:16 AM 43.0 °F 38.2 °F 41.5 °F 95% 30.09 in 10.0 mi SSW 8.1 mph - N/A   Clear
12:37 AM 42.4 °F 38.1 °F 41.2 °F 95% 30.09 in 10.0 mi SSW 6.9 mph - N/A   Clear
12:57 AM 41.9 °F 37.5 °F 40.8 °F 96% 30.09 in 10.0 mi SSW 6.9 mph - N/A   Clear
1:16 AM 41.9 °F 36.9 °F 41.0 °F 97% 30.09 in 10.0 mi SSW 8.1 mph - N/A   Clear
1:37 AM 42.1 °F 37.7 °F 41.0 °F 96% 30.09 in 10.0 mi SSW 6.9 mph - N/A   Clear
1:57 AM 42.3 °F 37.3 °F 41.2 °F 96% 30.09 in 10.0 mi SSW 8.1 mph - N/A   Clear
2:16 AM 42.1 °F 37.7 °F 41.0 °F 96% 30.09 in 10.0 mi SSW 6.9 mph - N/A   Clear
2:37 AM 42.4 °F 38.1 °F 41.4 °F 96% 30.09 in 10.0 mi SSW 6.9 mph - N/A   Clear
2:56 AM 41.9 °F 37.5 °F 40.6 °F 95% 30.09 in 7.0 mi SSW 6.9 mph - N/A   Clear
3:17 AM 41.9 °F 38.2 °F 41.0 °F 97% 30.08 in 7.0 mi SSW 5.8 mph - N/A   Clear
3:37 AM 41.9 °F 38.2 °F 41.0 °F 97% 30.08 in 7.0 mi SSW 5.8 mph - N/A   Clear
3:56 AM 41.4 °F 37.6 °F 40.5 °F 97% 30.08 in 5.0 mi SSW 5.8 mph - N/A   Clear
4:17 AM 41.0 °F 36.4 °F 40.1 °F 97% 30.08 in 5.0 mi SSW 6.9 mph - N/A   Clear
4:36 AM 40.6 °F 36.7 °F 39.9 °F 97% 30.09 in 7.0 mi SSW 5.8 mph - N/A   Clear
4:57 AM 40.1 °F 36.9 °F 39.4 °F 97% 30.09 in 7.0 mi SW 4.6 mph - N/A   Scattered Clouds
5:16 AM 41.9 °F 40.0 °F 41.2 °F 97% 30.10 in 7.0 mi SSW 3.5 mph - N/A   Overcast
5:37 AM 42.4 °F 40.7 °F 41.5 °F 97% 30.10 in 10.0 mi SSW 3.5 mph - N/A   Overcast
5:57 AM 43.2 °F 41.5 °F 42.3 °F 97% 30.10 in 7.0 mi SSW 3.5 mph - N/A   Overcast
6:50 AM 44.6 °F 42.2 °F 44.6 °F 100% 30.11 in 10.0 mi SW 4.6 mph - N/A   Overcast
7:50 AM 44.6 °F - 44.6 °F 100% 30.11 in 10.0 mi Calm Calm - N/A   Mostly Cloudy
8:50 AM 48.2 °F - 46.4 °F 93% 30.11 in 10.0 mi Calm Calm - N/A   Mostly Cloudy
9:50 AM 50.0 °F - 48.2 °F 94% 30.11 in 10.0 mi SSW 5.8 mph - N/A   Mostly Cloudy
10:50 AM 55.4 °F - 50.0 °F 82% 30.10 in 10.0 mi SSW 5.8 mph - N/A   Mostly Cloudy
11:50 AM 57.2 °F - 50.0 °F 77% 30.09 in 10.0 mi SW 10.4 mph 17.3 mph N/A   Scattered Clouds
12:50 PM 60.8 °F - 50.0 °F 68% 30.08 in 10.0 mi South 11.5 mph 17.3 mph N/A   Scattered Clouds
1:50 PM 62.6 °F - 50.0 °F 63% 30.06 in 10.0 mi South 6.9 mph - N/A   Scattered Clouds
3:50 PM 66.2 °F - 50.0 °F 56% 30.04 in 10.0 mi SSE 3.5 mph - N/A   Clear
4:55 PM 66.2 °F - 50.0 °F 56% 30.02 in 10.0 mi South 8.1 mph - N/A   Clear
5:55 PM 64.4 °F - 51.8 °F 64% 30.03 in 10.0 mi SSE 5.8 mph - N/A   Clear
6:55 PM 62.6 °F - 51.8 °F 68% 30.02 in 10.0 mi SSE 9.2 mph - N/A   Clear
7:55 PM 59.0 °F - 51.8 °F 77% 30.02 in 10.0 mi South 4.6 mph - N/A   Clear
8:55 PM 55.4 °F - 50.0 °F 82% 30.03 in 10.0 mi South 8.1 mph - N/A   Clear
9:50 PM 53.6 °F - 50.0 °F 88% 30.03 in 10.0 mi South 6.9 mph - N/A   Clear
10:17 PM 51.4 °F - 49.1 °F 92% 30.03 in 10.0 mi SSW 3.5 mph - N/A   Clear
10:36 PM 50.7 °F - 48.6 °F 92% 30.03 in 10.0 mi SSW 3.5 mph - N/A   Clear
10:57 PM 50.0 °F - 48.4 °F 94% 30.03 in 7.0 mi SSW 4.6 mph - N/A   Clear
11:17 PM 49.8 °F - 48.4 °F 95% 30.03 in 7.0 mi SSW 4.6 mph - N/A   Clear
11:36 PM 49.6 °F - 48.2 °F 95% 30.03 in 7.0 mi SSW 4.6 mph - N/A   Clear
11:57 PM 50.2 °F - 48.7 °F 95% 30.01 in 7.0 mi South 5.8 mph - N/A   Clear